Location: Newark
(7.0858°N, 171.3717°E)
Time: 01:15:30
(UTC+00:00)

Vanguard 3 - Pass Details

Date: 04 December 2020
Orbit: 508 x 3262 km, 33.3° (Epoch: 19 January)

Event Time Altitude Azimuth Distance (km) Brightness Sun altitude
Rises 06:36:56 0° 275° (W) 4,178 12.1 -5.5°
Reaches altitude 10° 06:42:53 10° 310° (NW) 2,526 10.1 -6.8°
Maximum altitude 06:44:18 11° 324° (NW) 2,320 9.7 -7.2°
Drops below altitude 10° 06:45:35 10° 339° (NNW) 2,249 9.4 -7.5°
Sets 06:49:40 0° 19° (NNE) 2,812 9.5 -8.4°
